Woodlawn, VA

7:04 PM EST on February 06, 2016 (GMT -0500)
Twin County

Weather History for KHLX - January, 2013

Change the Weather History Date:

Sunday, January 20, 2013

  Actual Average (KBLF) Record (KBLF)
Temperature  
Mean Temperature 40 °F 34 °F  
Max Temperature 46 °F 42 °F 60 °F (1988)
Min Temperature 35 °F 26 °F -20 °F (1985)
Degree Days  
Heating Degree Days 24 31  
Month to date heating degree days 620  
Since 1 July heating degree days 2385  
Cooling Degree Days 0 0  
Month to date cooling degree days 0  
Year to date cooling degree days 0  
Moisture  
Dew Point 29 °F    
Average Humidity 62    
Maximum Humidity 75    
Minimum Humidity 50    
Precipitation  
Precipitation 0.15 in 0.09 in 2.05 in (1972)
Month to date precipitation 1.88  
Year to date precipitation 1.88  
Snow  
Snow 0.00 in - - ()
Month to date snowfall  
Since 1 July snowfall  
Snow Depth -    
Sea Level Pressure  
Sea Level Pressure 30.06 in    
Wind  
Wind Speed 9 mph (West)    
Max Wind Speed 25 mph    
Max Gust Speed 34 mph    
Visibility 10 miles    
Events      
T = Trace of Precipitation, MM = Missing Value Source: NWS Daily Summary

Daily Weather History Graph

Daily Weather History Graph

Search for Another Location

Airport or City:

Trip Planner

Search our weather history database for the weather conditions in past years. The results will help you decide how hot, cold, wet, or windy it might be!

Date:

Astronomy

Jan. 20, 2013 Rise Set
Actual Time 7:32 AM EST 5:36 PM EST
Civil Twilight 7:05 AM EST 6:04 PM EST
Nautical Twilight 6:33 AM EST 6:35 PM EST
Astronomical Twilight 6:02 AM EST 7:06 PM EST
Moon 12:36 PM EST (1/20) 2:04 AM EST (1/20)
Length of Visible Light 10h 59m
Length of Day
10h 03m
Waxing Gibbous, 66% of the Moon is Illuminated
Jan 20
Waxing Gibbous
Jan 26
Full
Feb 3
Last Quarter
Feb 10
New
Feb 17
First Quarter

Hourly Weather History & Observations

Time (EST) Temp. Windchill Dew Point Humidity Pressure Visibility Wind Dir Wind Speed Gust Speed Precip Events Conditions
12:15 AM 37.4 °F 32.1 °F 28.4 °F 70% 30.10 in 10.0 mi SW 6.9 mph - N/A   Clear
12:35 AM 35.6 °F 29.9 °F 28.4 °F 75% 30.09 in 10.0 mi SW 6.9 mph - N/A   Clear
12:55 AM 37.4 °F 32.1 °F 28.4 °F 70% 30.09 in 10.0 mi SW 6.9 mph - N/A   Clear
1:15 AM 35.6 °F 31.7 °F 28.4 °F 75% 30.08 in 10.0 mi SW 4.6 mph - N/A   Clear
1:35 AM 35.6 °F - 28.4 °F 75% 30.09 in 10.0 mi Calm Calm - N/A   Clear
1:55 AM 35.6 °F - 28.4 °F 75% 30.08 in 10.0 mi Calm Calm - N/A   Clear
2:15 AM 35.6 °F 30.7 °F 28.4 °F 75% 30.09 in 10.0 mi West 5.8 mph - N/A   Clear
2:35 AM 37.4 °F 32.1 °F 26.6 °F 65% 30.08 in 10.0 mi WSW 6.9 mph - N/A   Clear
2:55 AM 37.4 °F 32.8 °F 26.6 °F 65% 30.07 in 10.0 mi West 5.8 mph - N/A   Clear
3:15 AM 35.6 °F 30.7 °F 26.6 °F 70% 30.07 in 10.0 mi West 5.8 mph - N/A   Clear
3:35 AM 37.4 °F 32.8 °F 24.8 °F 60% 30.07 in 10.0 mi WSW 5.8 mph - N/A   Clear
3:55 AM 37.4 °F 33.8 °F 24.8 °F 60% 30.06 in 10.0 mi West 4.6 mph - N/A   Clear
4:15 AM 37.4 °F 33.8 °F 24.8 °F 60% 30.06 in 10.0 mi WSW 4.6 mph - N/A   Clear
4:35 AM 37.4 °F 33.8 °F 24.8 °F 60% 30.05 in 10.0 mi West 4.6 mph - N/A   Clear
4:55 AM 39.2 °F 33.0 °F 26.6 °F 61% 30.05 in 10.0 mi WNW 9.2 mph - N/A   Clear
5:15 AM 39.2 °F 32.5 °F 26.6 °F 61% 30.05 in 10.0 mi West 10.4 mph - N/A   Clear
5:35 AM 41.0 °F 33.9 °F 26.6 °F 57% 30.05 in 10.0 mi West 12.7 mph 17.3 mph N/A   Clear
5:55 AM 41.0 °F 35.2 °F 26.6 °F 57% 30.05 in 10.0 mi West 9.2 mph 17.3 mph N/A   Clear
6:15 AM 41.0 °F 34.3 °F 26.6 °F 57% 30.05 in 10.0 mi West 11.5 mph 18.4 mph N/A   Clear
6:35 AM 41.0 °F 34.7 °F 28.4 °F 61% 30.05 in 10.0 mi West 10.4 mph 17.3 mph N/A   Clear
6:55 AM 41.0 °F 34.3 °F 28.4 °F 61% 30.05 in 10.0 mi West 11.5 mph 19.6 mph N/A   Clear
7:15 AM 41.0 °F 34.3 °F 28.4 °F 61% 30.05 in 10.0 mi West 11.5 mph 17.3 mph N/A   Clear
7:35 AM 41.0 °F 33.5 °F 28.4 °F 61% 30.05 in 10.0 mi West 13.8 mph 18.4 mph N/A   Clear
7:55 AM 39.2 °F 32.5 °F 28.4 °F 65% 30.05 in 10.0 mi West 10.4 mph 17.3 mph N/A   Clear
8:15 AM 41.0 °F 32.8 °F 30.2 °F 65% 30.05 in 10.0 mi West 16.1 mph 23.0 mph N/A   Clear
8:35 AM 41.0 °F 32.2 °F 30.2 °F 65% 30.05 in 10.0 mi West 18.4 mph 29.9 mph N/A   Clear
8:55 AM 42.8 °F 34.5 °F 30.2 °F 61% 30.06 in 10.0 mi West 18.4 mph 29.9 mph N/A   Clear
9:15 AM 42.8 °F 34.0 °F 30.2 °F 61% 30.06 in 10.0 mi WNW 20.7 mph 27.6 mph N/A   Clear
9:35 AM 42.8 °F 35.8 °F 30.2 °F 61% 30.07 in 10.0 mi West 13.8 mph 27.6 mph 0.02 in   Clear
9:55 AM 42.8 °F 33.3 °F 30.2 °F 61% 30.07 in 10.0 mi WNW 24.2 mph 34.5 mph 0.01 in   Clear
10:15 AM 42.8 °F 33.8 °F 30.2 °F 61% 30.07 in 10.0 mi WNW 21.9 mph 33.4 mph 0.03 in   Clear
10:35 AM 44.6 °F 35.5 °F 30.2 °F 57% 30.08 in 10.0 mi West 25.3 mph 33.4 mph 0.06 in   Clear
10:55 AM 44.6 °F 35.7 °F 30.2 °F 57% 30.08 in 10.0 mi West 24.2 mph 34.5 mph 0.02 in   Clear
11:15 AM 44.6 °F 36.9 °F 30.2 °F 57% 30.08 in 10.0 mi West 18.4 mph 33.4 mph 0.03 in   Clear
11:35 AM 44.6 °F 37.8 °F 30.2 °F 57% 30.07 in 10.0 mi West 15.0 mph 31.1 mph 0.05 in   Clear
11:55 AM 44.6 °F 38.1 °F 30.2 °F 57% 30.07 in 10.0 mi West 13.8 mph 28.8 mph 0.01 in   Clear
12:15 PM 46.4 °F 39.0 °F 30.2 °F 53% 30.06 in 10.0 mi West 19.6 mph 27.6 mph 0.02 in   Clear
12:35 PM 46.4 °F 40.1 °F 30.2 °F 53% 30.05 in 10.0 mi West 15.0 mph 26.5 mph 0.02 in   Clear
12:55 PM 46.4 °F 40.1 °F 30.2 °F 53% 30.05 in 10.0 mi West 15.0 mph 27.6 mph N/A   Clear
1:15 PM 46.4 °F 39.8 °F 30.2 °F 53% 30.05 in 10.0 mi West 16.1 mph 24.2 mph N/A   Clear
1:55 PM 46.4 °F 40.1 °F 30.2 °F 53% 30.03 in 10.0 mi West 15.0 mph 26.5 mph N/A   Clear
2:15 PM 46.4 °F 39.5 °F 30.2 °F 53% 30.03 in 10.0 mi West 17.3 mph 25.3 mph N/A   Clear
2:35 PM 46.4 °F 39.0 °F 28.4 °F 50% 30.03 in 10.0 mi WNW 19.6 mph 28.8 mph N/A   Clear
2:55 PM 46.4 °F 41.5 °F 30.2 °F 53% 30.03 in 10.0 mi West 10.4 mph 20.7 mph N/A   Clear
3:15 PM 46.4 °F 40.7 °F 30.2 °F 53% 30.04 in 10.0 mi West 12.7 mph 25.3 mph N/A   Clear
3:35 PM 46.4 °F 41.1 °F 30.2 °F 53% 30.04 in 10.0 mi West 11.5 mph 21.9 mph N/A   Clear
3:55 PM 46.4 °F 41.5 °F 30.2 °F 53% 30.05 in 10.0 mi West 10.4 mph 20.7 mph N/A   Clear
4:15 PM 46.4 °F 41.1 °F 30.2 °F 53% 30.05 in 10.0 mi West 11.5 mph 16.1 mph N/A   Clear
4:35 PM 46.4 °F 40.4 °F 30.2 °F 53% 30.05 in 10.0 mi West 13.8 mph 21.9 mph N/A   Clear
4:55 PM 46.4 °F 41.9 °F 30.2 °F 53% 30.06 in 10.0 mi West 9.2 mph - N/A   Clear
5:15 PM 44.6 °F 40.7 °F 30.2 °F 57% 30.06 in 10.0 mi WSW 6.9 mph - N/A   Clear
5:35 PM 44.6 °F 39.2 °F 30.2 °F 57% 30.06 in 10.0 mi West 10.4 mph 18.4 mph N/A   Clear
5:55 PM 44.6 °F 39.2 °F 30.2 °F 57% 30.07 in 10.0 mi West 10.4 mph - N/A   Clear
6:15 PM 42.8 °F 39.3 °F 30.2 °F 61% 30.08 in 10.0 mi West 5.8 mph - N/A   Clear
6:35 PM 42.8 °F 38.6 °F 30.2 °F 61% 30.08 in 10.0 mi West 6.9 mph - N/A   Clear
6:55 PM 42.8 °F 39.3 °F 32.0 °F 66% 30.08 in 10.0 mi West 5.8 mph - N/A   Clear
7:15 PM 42.8 °F 40.1 °F 32.0 °F 66% 30.08 in 10.0 mi West 4.6 mph - N/A   Clear
7:35 PM 42.8 °F 40.1 °F 32.0 °F 66% 30.08 in 10.0 mi West 4.6 mph - N/A   Clear
7:55 PM 41.0 °F 38.0 °F 32.0 °F 70% 30.08 in 10.0 mi West 4.6 mph - N/A   Clear
8:15 PM 41.0 °F 37.1 °F 32.0 °F 70% 30.08 in 10.0 mi West 5.8 mph - N/A   Clear
8:55 PM 41.0 °F 37.1 °F 32.0 °F 70% 30.08 in 10.0 mi West 5.8 mph - N/A   Unknown
9:15 PM 41.0 °F 36.4 °F 32.0 °F 70% 30.07 in 10.0 mi West 6.9 mph - N/A   Unknown
9:35 PM 41.0 °F 36.4 °F 32.0 °F 70% 30.08 in 10.0 mi West 6.9 mph - N/A   Clear
9:55 PM 41.0 °F 35.8 °F 32.0 °F 70% 30.07 in 10.0 mi West 8.1 mph - N/A   Clear
10:15 PM 39.2 °F 33.0 °F 32.0 °F 75% 30.08 in 10.0 mi West 9.2 mph - N/A   Clear
10:35 PM 39.2 °F 33.6 °F 32.0 °F 75% 30.08 in 10.0 mi West 8.1 mph - N/A   Clear
10:55 PM 39.2 °F 32.5 °F 32.0 °F 75% 30.07 in 10.0 mi WNW 10.4 mph - N/A   Clear
11:15 PM 39.2 °F 32.0 °F 30.2 °F 70% 30.06 in 10.0 mi WNW 11.5 mph - N/A   Clear
11:35 PM 39.2 °F 33.0 °F 28.4 °F 65% 30.05 in 10.0 mi WNW 9.2 mph - N/A   Unknown
11:55 PM 39.2 °F 33.6 °F 28.4 °F 65% 30.05 in 10.0 mi WNW 8.1 mph - N/A   Clear